Location: Munkebjergskolens Observatorium
(55.3864°N, 10.3987°E)
Time: 21:54:18
(UTC+02:00)

CAS-6 - Visible Passes

Search period start: 30 May 2024 00:00
Search period end: 09 June 2024 00:00
Orbit: 607 x 628 km, 97.8° (Epoch: 30 May)

Date Brightness Start Highest point End Pass type
(mag) Time Alt. Az. Time Alt. Az. Time Alt. Az.
31 May ? 00:03:15 10° SSW 00:07:04 31° W 00:10:56 10° NNW visible
31 May ? 22:43:11 10° SE 22:47:21 55° ENE 22:51:34 10° N visible
01 Jun ? 00:20:19 10° SW 00:23:44 23° W 00:27:11 10° NW visible
01 Jun ? 22:59:34 10° SSE 23:03:50 76° ENE 23:08:08 10° NNW visible
02 Jun ? 00:37:38 10° SW 00:40:26 17° W 00:43:17 10° NW visible
02 Jun ? 23:16:05 10° SSE 23:20:21 79° WSW 23:24:41 10° NNW visible
03 Jun ? 00:55:22 10° WSW 00:57:12 12° W 00:59:01 10° WNW visible
03 Jun ? 23:32:42 10° S 23:36:55 56° W 23:41:10 10° NNW visible
04 Jun ? 23:49:27 10° SSW 23:53:30 40° W 23:57:35 10° NNW visible
06 Jun ? 00:06:22 10° SSW 00:10:07 29° W 00:13:55 10° NNW visible
06 Jun ? 22:46:09 10° SSE 22:50:21 58° ENE 22:54:36 10° N visible
07 Jun ? 00:23:27 10° SW 00:26:47 22° W 00:30:09 10° NW visible
07 Jun ? 23:02:32 10° SSE 23:06:50 80° ENE 23:11:10 10° NNW visible
08 Jun ? 00:40:47 10° SW 00:43:29 16° W 00:46:11 10° NW visible
08 Jun ? 23:19:03 10° S 23:23:20 74° WSW 23:27:40 10° NNW visible
